Regional Weather Roundup
Issued by NWS

Home | Current Version | Previous Version | Text Only | Print | Product List | Glossary Off
Versions: 1 2 3 4 5 6 7 8 9 10 11 12 13 14 15 16 17 18 19 20 21 22 23 24 25 26 27 28 29 30 31 32 33 34 35 36 37 38 39 40 41 42 43 44 45 46 47 48 49 50

000
ASUS45 KBOU 201107
RWRCO

WEATHER ROUNDUP FOR COLORADO
NATIONAL WEATHER SERVICE DENVER/BOULDER CO
400 AM MST MON FEB 20 2017

NOTE: "FAIR" INDICATES FEW OR NO CLOUDS BELOW 12000 FEET WITH NO
SIGNIFICANT WEATHER AND/OR OBSTRUCTIONS TO VISIBILITY.

COZ001>005-013-030-031-201200-
...NORTHWEST COLORADO...

CITY           SKY/WX    TMP DP  RH WIND       PRES   REMARKS
CRAIG          CLOUDY    28  26  92 SE3       30.04R FOG
HAYDEN         CLOUDY    23  19  86 CALM      30.03R VSB 1/2
MEEKER         CLOUDY    27  26  96 NE5       30.05R FOG     WCI  22
MOUNT WERNER   NOT AVBL
STEAMBOAT SPGS MOCLDY    30  28  92 SE3       30.02S
WALDEN         NOT AVBL
$$

COZ006>008-011-201200-
...WEST CENTRAL VALLEYS...

CITY           SKY/WX    TMP DP  RH WIND       PRES   REMARKS
GRAND JUNCTION FAIR      37  37 100 E6        30.06R
MONTROSE       CLOUDY    32  31  96 E6        30.09R WCI  26
EAGLE          CLOUDY    31  30  96 CALM      30.08R
RIFLE          CLOUDY    37  34  89 CALM      30.06R
DELTA          CLOUDY    40  38  95 CALM      30.09R
NUCLA          MOCLDY    34  32  93 SE5       30.11S WCI  30
$$

COZ017>023-064>068-201200-
...SOUTHWEST COLORADO...

CITY           SKY/WX    TMP DP  RH WIND       PRES   REMARKS
DURANGO        MOCLDY    29  25  85 N7        30.05R WCI  22
CORTEZ         FAIR      34  33  96 E5        30.08R WCI  30
PAGOSA SPRINGS FAIR      28  28 100 CALM      30.05S FOG
TELLURIDE      NOT AVBL
WOLF CREEK PAS FAIR      12  12 100 CALM      30.10R
$$

COZ009-010-012-014-032>034-037-058>063-201200-
...CENTRAL COLORADO...

CITY           SKY/WX    TMP DP  RH WIND       PRES   REMARKS
ASPEN          CLOUDY    31  28  89 N3        30.04R
BUENA VISTA    FAIR      31  17  57 W9        30.00R WCI  23
COPPER MTN     CLOUDY    19  14  79 MISG      29.99S
BERTHOUD PASS  CLOUDY    10   0  61 MISG      29.90R
COTTONWOOD PAS FAIR      30  14  51 W13G22    30.00R WCI  20
GUNNISON       FAIR      28  25  88 W9        30.04R WCI  19
KREMMLING      FAIR      32  25  74 W6        30.02S WCI  26
LEADVILLE      FAIR      16  11  80 NW6       29.99R WCI   7
MONARCH PASS   SNOW      18  14  86 W21       30.10S VSB 1/4 WCI   1
SALIDA         FAIR      35  17  47 NW14      30.05R WCI  26
SUNLIGHT       NOT AVBL
WILKERSON PASS FAIR      18   9  68 NW15G29   30.00R WCI   3
$$

COZ069>075-201200-
...SAN LUIS VALLEY/SANGRE DE CRISTO MOUNTAINS...

CITY           SKY/WX    TMP DP  RH WIND       PRES   REMARKS
ALAMOSA        FAIR      30  22  72 NW9       30.00R WCI  22
LA VETA PASS   FAIR      23  19  86 NE20G35   29.97R WCI   8
SAGUACHE       FAIR      32  21  64 NW22G28   30.00R WCI  19
$$

COZ035-036-038>040-201200-
...NORTHERN COLORADO FRONT RANGE...

CITY           SKY/WX    TMP DP  RH WIND       PRES   REMARKS
DENVER INTL AP FAIR      34  21  59 SW8       29.86R WCI  27
DMNS CITY PARK   N/A     45  11  25 W8G14     29.87S
AURORA         PTCLDY    34  25  69 S6        29.89R WCI  29
FRONT RANGE AP FAIR      37  21  52 SW6       29.88R
ERIE MUNI ARPT FAIR      47  10  22 W18       29.86R
BOULDER MUN AP FAIR      45  10  24 NW12      29.86R
CENTENNIAL     FAIR      39  14  36 W8        29.89R
BROOMFIELD     FAIR      39  12  33 W3        29.88R
FORT COLLINS   FAIR      44  10  25 N8        29.86R
LONGMONT       FAIR      40  24  54 CALM      29.88R
$$

COZ041-046-047-076>085-087-088-201200-
...PIKES PEAK/PALMER DIVIDE AND SOUTHERN FOOTHILLS...

CITY           SKY/WX    TMP DP  RH WIND       PRES   REMARKS
COLO. SPRINGS  FAIR      37  17  44 N13       29.90R
A. F. ACADEMY  FAIR      36  12  38 NW15G23   29.89R
SCHRIEVER AFB  FAIR      37  30  78 N10G20    29.91R
ELLICOTT       FAIR     N/A N/A N/A NE7       29.89R
FALCON         FAIR      32  23  68 N8        29.92R WCI  25
FORT CARSON    FAIR      37  21  52 N3        29.88R
LIMON          FAIR      39  19  44 N21       29.84R
MONUMENT HILL  FAIR      28  18  64 NW9       29.91R WCI  20
TRINIDAD       FAIR      39  19  44 NW9       29.88R
$$

COZ042>045-048>051-090-091-201200-
...NORTHEAST COLORADO...

CITY           SKY/WX    TMP DP  RH WIND       PRES   REMARKS
GREELEY ARPT   FAIR      39  20  46 N12       29.88R
AKRON          FAIR      44  15  31 NW30G39   29.81R
BURLINGTON     FAIR      46  28  49 NW17      29.80R
WRAY           NOT AVBL
STERLING       FAIR      45  19  36 NW23G29   29.80R
HOLYOKE        FAIR      54  30  40 NW22G31   29.76R
FORT MORGAN    FAIR      40  18  39 NW14      29.86R
$$

COZ086-089-092>099-201200-
...SOUTHEAST COLORADO...

CITY           SKY/WX    TMP DP  RH WIND       PRES   REMARKS
PUEBLO         FAIR      41  24  51 N8        29.87R
LA JUNTA       CLOUDY    50  27  40 N14       29.84R
LAMAR          CLOUDY    45  32  60 W9        29.81R
SPRINGFIELD      N/A     45  32  60 NW20G28   29.82R
$$



USA.gov is the U.S. government's official web portal to all federal, state and local government web resources and services.